Preview of NWS' New Version of Forecast
This preview is not operational and should not be used for support decisions.

Regional Weather Roundup (RWR)

Issued by National Weather Service (NWS)

                            
000
ASUS43 KMKX 231311
RWRWI 

WISCONSIN REGIONAL WEATHER ROUNDUP
NATIONAL WEATHER SERVICE MILWAUKEE/SULLIVAN WI
800 AM CDT FRI AUG 23 2019

NOTE: "FAIR" INDICATES FEW OR NO CLOUDS BELOW 12,000 FEET WITH NO
SIGNIFICANT WEATHER AND/OR OBSTRUCTIONS TO VISIBILITY.

WIZ001-002-006>008-014>016-023>028-231400-
NORTHWEST WISCONSIN
  
CITY           SKY/WX    TMP DP  RH WIND       PRES   REMARKS
SUPERIOR ARPT  FAIR      51  51 100 CALM      30.29R                  
ASHLAND        FAIR      49  48  97 CALM      30.30S                  
HAYWARD        FAIR      53  49  86 N3        30.29R                  
SIREN          FAIR      53  50  90 CALM      30.25S                  
CUMBERLAND     FAIR      52  48  87 E3        30.26R                  
RICE LAKE      FAIR      56  40  55 E7        30.27R                  
CHETEK         FAIR      55  50  86 E3        30.26R                  
LADYSMITH      FAIR      54  51  89 E6        30.29R                  
EAU CLAIRE     FAIR      57  51  80 E8        30.24R                  
MENOMONIE      FAIR      54  49  86 NE7       30.24R                  
NEW RICHMOND   CLOUDY    55  50  83 E6        30.23R                  
OSCEOLA        FAIR      57  53  89 E3        30.26R                  
$$
 
WIZ003>005-009-010-017-018-231400-
NORTH CENTRAL WISCONSIN
  
CITY           SKY/WX    TMP DP  RH WIND       PRES   REMARKS
MANITOWISH WTR FAIR      51  51 100 E3        30.30R                  
ARBOR VITAE    FAIR      52  49  90 CALM      30.30R                  
WOODRUFF       FAIR      52  49  90 CALM      30.30R                  
RHINELANDER    FAIR      52  49  89 CALM      30.30R                  
EAGLE RIVER    FAIR      48  48 100 CALM      30.29R                  
LAND O LAKES   FAIR      48  48 100 CALM      30.31R                  
PHILLIPS       FAIR      50  50 100 CALM      30.28R                  
TOMAHAWK       FAIR      49  48  99 CALM      30.29R                  
MEDFORD        FAIR      51  49  92 NE6       30.27R                  
MERRILL        FAIR      49  49 100 NE5       30.28R                  
$$
 
WIZ029-030-035-036-043>047-231400-
CENTRAL WISCONSIN
  
CITY           SKY/WX    TMP DP  RH WIND       PRES   REMARKS
WAUSAU         FAIR      54  50  86 E6        30.26R                  
MOSINEE        SUNNY     52  52 100 NE7       30.27R                  
MARSHFIELD     FAIR      55  49  80 E7        30.25R                  
STEVENS POINT  FAIR      52  50  92 NE7       30.26R                  
WAUPACA        FAIR      57  53  85 NE5       30.25R                  
WAUTOMA        FAIR      57  51  80 NE6       30.25R                  
WISC RAPIDS    FAIR      57  49  74 E5        30.25R                  
CAMP DOUGLAS   MOSUNNY   59  59 100 NE5       30.24R                  
$$
 
WIZ011>013-019>022-031-037>040-048>050-231400-
NORTHEAST WISCONSIN
  
CITY           SKY/WX    TMP DP  RH WIND       PRES   REMARKS
ANTIGO         FAIR      50  48  95 NE5       30.28R                  
SHAWANO        FAIR      56  53  87 NE7       30.26R                  
OCONTO         FAIR      54  51  89 N5        30.26R                  
STURGEON BAY   FAIR      60  54  80 NE9       30.25S                  
GREEN BAY      FAIR      57  53  86 N7        30.24S                  
MANITOWOC      FAIR      58  53  84 N7        30.24R                  
APPLETON       MOSUNNY   54  54 100 NE7       30.23R                  
CLINTONVILLE   FAIR      55  51  87 NE7       30.26R                  
OSHKOSH        FAIR      62  54  74 NE12      30.23R                  
$$
 
WIZ032>034-041-042-053>061-231400-
SOUTHWEST WISCONSIN
  
CITY           SKY/WX    TMP DP  RH WIND       PRES   REMARKS
LA CROSSE      PTSUNNY   62  56  80 E5        30.22R                  
SPARTA         FAIR      53  53  99 CALM      30.24R                  
VIROQUA        PTSUNNY   59  59  99 E7        30.23R                  
BOSCOBEL       NOT AVBL                                               
PRAIRIE DU CHI FAIR      60  57  91 CALM      30.22R                  
PLATTEVILLE    FAIR      59  59  99 E8        30.22R                  
$$

WIZ056-057-062-063-064-067-068-231400-
SOUTH CENTRAL WISCONSIN
  
CITY           SKY/WX    TMP DP  RH WIND       PRES   REMARKS
REEDSBURG      CLOUDY    58  57  97 CALM      30.23R                  
BARABOO/DELLS  CLOUDY    59  54  85 E7        30.23R                  
LONE ROCK      PTSUNNY   59  56  89 CALM      30.22R                  
MINERAL POINT  PTSUNNY   63  59  88 E7        30.22R                  
MADISON        FAIR      61  54  77 E9        30.22R                  
MIDDLETON      PTSUNNY   62  -1   8 CALM      30.23R                  
WATERTOWN      FAIR      61  55  80 NE6       30.22R                  
MONROE         FAIR      60  56  85 NE6       30.21R                  
JANESVILLE     PTSUNNY   61  57  88 NE6       30.20R                  
$$
 
WIZ051-052-058>065-066-070>072-231400-
SOUTHEAST WISCONSIN
  
CITY           SKY/WX    TMP DP  RH WIND       PRES   REMARKS
MILWAUKEE      FAIR      68  52  56 E10       30.21R                  
WAUKESHA       SUNNY     59  54  82 NE3       30.23R                  
MILWAUKEE/TIMM SUNNY     63  52  67 NE6       30.22R                  
RACINE         PTSUNNY   68  52  56 NE12      30.22R                  
KENOSHA        FAIR      65  55  70 NE7       30.21R                  
FOND DU LAC    FAIR      62  53  72 E6        30.23R                  
SHEBOYGAN      FAIR      60  54  80 N8        30.23                   
WEST BEND      FAIR      59  55  88 NE6       30.23R                  
JUNEAU         FAIR      59  54  84 CALM      30.24R                  
$$

LSZ147-162-231400-
LAKE SUPERIOR
  
STATION/POSITION TIME  TEMP    WIND        PRES    WAVE
                       AIR SEA DIR/SP/G            HT/PER
                 (UTC) (F)     (DEG/KT/KT) (MB)    (FT/S)
W MID LAKE BUOY  1250   62 63   20/  4/  6 1025.9R   0
DEVILS ISLAND    1200   61     140/  4/  5 1025.7R
SAXON HARBOR     1240   49     160/  4/  4 1025.4R
$$
 
LMZ867-665-643>646-231400-
LAKE MICHIGAN
  
STATION/POSITION TIME  TEMP    WIND        PRES    WAVE
                       AIR SEA DIR/SP/G            HT/PER
                 (UTC) (F)     (DEG/KT/KT) (MB)    (FT/S)
S GREEN BAY BUOY 1230   65 69  360/ 12/ 16 1024.0R
N MID LAKE BUOY  1250   61 70  360/ 12/ 14 1024.2R   1/ 3
NORTHPORT PIER   1240   61     330/  6/  8 1023.7S
KEWAUNEE LAKESHO 1230   60     360/  3/  7 1022.9R
SHEBOYGAN LAKESH 1300   63      20/ 13/ 15 1023.7R
PORT WASHINGTON  1240   61     350/  5/  9 1024.0R
ATWATER BUOY     1230   66 69   20/ 14/ 17 1022.7R
S MID LAKE BUOY  1250   66 73   60/ 14/ 17 1022.8R   3/ 5
KENOSHA   LAKESH 1300   67      70/ 12/ 14 1022.4
$$

TC  - TEMPERATURE IN CELSIUS
VSB - VISIBILITY IN STATUTE MILES
WCI - WIND CHILL INDEX
HX  - HEAT INDEX